AirNav   Air Wisconsin Up To $57,000 Bonus
 
 1058 users online  

2RI7 Malbone Estate Heliport
Newport, Rhode Island, USA

GOING TO NEWPORT?


FAA INFORMATION EFFECTIVE 30 JANUARY 2020

Location

FAA Identifier: 2RI7
Lat/Long: 41-30-23.2000N 071-18-40.7300W
41-30.386667N 071-18.678833W
41.5064444,-71.3113139
(estimated)
Elevation: 83 ft. / 25 m (estimated)
Variation: 15W (2000)
From city: 2 miles SW of NEWPORT, RI
Time zone: UTC -5 (UTC -4 during Daylight Saving Time)
Zip code: 02840

Heliport Operations

Heliport use: Private use. Permission required prior to landing
Activation date: 06/2002
Control tower: no
ARTCC: BOSTON CENTER
FSS: BRIDGEPORT FLIGHT SERVICE STATION
Attendance: UNATNDD
Wind indicator: yes
Segmented circle: no

Heliport Communications

WX ASOS at UUU (2.1 nm NE): 132.075 (401-846-5910)
WX ASOS at OQU (7 nm NW): 118.6
WX ASOS at PVD (14 nm N): 124.2 (401-734-2818)
WX ASOS at EWB (19 nm NE): 126.85 (508-992-0195)

Nearby radio navigation aids

VOR radial/distance  VOR name  Freq  Var
PVDr172/14.1PROVIDENCE VOR/DME115.6014W
SEYr045/23.6SANDY POINT VOR/DME117.8015W
ORWr110/31.0NORWICH VOR/DME110.0014W
MVYr297/32.1MARTHAS VINEYARD VOR/DME114.5015W
GONr086/35.0GROTON VOR/DME110.8514W
PUTr152/36.0PUTNAM VOR/DME117.4014W

 
NDB name  Hdg/Dist  Freq  Var  ID
TAUNTON227/25.822716WTAN - .- -.

Heliport Services

Runway Information

Helipad H1

Dimensions: 50 x 150 ft. / 15 x 46 m
Surface: turf
Traffic pattern: leftleft

Heliport Ownership and Management from official FAA records

Ownership: Privately-owned
Owner: MALBONE ROAD TRUST
MALBONE ESTATE, MALBONE ROAD
NEWPORT, RI 02840
Phone 401-848-0054
Manager: JAMES H. LEACH
MALBONE ESTATE, MALBONE ROAD
NEWPORT, RI 02840
Phone 401-848-0054

Additional Remarks

A52-H1 RADIO TOWER 331 FT 1/4 MILE SW.
FOR CD CTC PROVIDENCE APCH AT 401-738-8945, WHEN APCH CLSD CTC BOSTON ARTCC AT 603-879-6859.

Instrument Procedures

There are no published instrument procedures at 2RI7.

Some nearby airports with instrument procedures:

KUUU - Newport State Airport (2 nm NE)
KOQU - Quonset State Airport (7 nm NW)
KPVD - Theodore Francis Green State Airport (14 nm N)
KEWB - New Bedford Regional Airport (19 nm NE)
KBID - Block Island State Airport (24 nm SW)
 
Loc | Ops | Rwys | IFR | FBO | Links
Com | Nav | Svcs | Stats | Notes
Area around 2RI7 (Malbone Estate Heliport)
 
Road maps at: MapQuest Bing Google
 
Aerial photo
No photo
 
Sectional chart

 
Airport distance calculator
Flying to Malbone Estate Heliport? Find the distance to fly.

From to 2RI7

Sunrise and sunset
Times for 21-Feb-2020
 Local
(UTC-5)
 Zulu
(UTC)
Morning civil twilight06:0511:05
Sunrise06:3311:33
Sunset17:2522:25
Evening civil twilight17:5322:53

Current date and time
Zulu (UTC)  22-Feb-2020 00:22:31
Local (UTC-5)  21-Feb-2020 19:22:31
 
METAR
KUUU 
2nm NE 
212353Z AUTO 18003KT 10SM CLR M03/M13 A3037 RMK AO2 SLP285 T10331128 11006 21033 58003
KOQU 
7nm NW 
212350Z 23010KT 10SM SKC M02/M13 A3037
KPVD 
14nm NW 
212351Z 20006KT 10SM CLR M04/M13 A3037 RMK AO2 SLP285 T10391128 10006 21039 57002
KEWB 
19nm NE 
212353Z 21006KT 10SM CLR M04/M11 A3037 RMK AO2 SLP285 T10441106 11006 21044 57001
TAF
KPVD 
14nm NW 
212102Z 2121/2218 28004KT P6SM FEW025 FM212200 23003KT P6SM SKC FM221100 25006KT P6SM SKC
NOTAMs
Click for the latest NOTAMs
NOTAMs are issued by the DoD/FAA and will open in a separate window not controlled by AirNav.

 

 
 

Would you like to see your business listed on this page?

 If your business provides an interesting product or service to pilots, flight crews, aircraft, or users of the Malbone Estate Heliport, you should consider listing it here.  To start the listing process, click on the button below
 
Add a business
 

Other Pages about Malbone Estate Heliport

www.malboneestate.com
 
Update a link
 
Copyright © AirNav, LLC. All rights reserved. Privacy Policy  Contact